SCP
-0 -0 -0 -0 -0 -0 -0 -0 -0 -0 -0 -0 -0 0 0 0 0 0 0 0 0 0 -0 -0 -0 0 -0 0 0 -0 -0 -0 -0 -0 0 0 0 0 0 0 -0 0 0
-0 -0 -0 -0 -0 -0 -0 0 -0 -0 -0 -0 0 0 0 0 0 0 0 0 0 0 -0 -0 0 -0 -0 -0 0 0 -0 -0 -0 -0 -0 -0 -0 0 0 -0 -0 -0 -0
-0 -0 -0 -0 -0 -0 -0 0 0 -0 -0 -0 -0 0 0 0 0 0 0 0 0 -0 -0 -0 -0 0 0 0 0 0 -0 -0 -0 -0 0 -0 -0 -0 -0 -0 -0 -0 -0
-0 -0 -0 -0 -0 -0 0 0 0 0 -0 -0 0 0 0 0 0 0 0 0 0 0 -0 -0 -0 -0 0 0 0 -0 -0 -0 -0 0 0 0 -0 -0 -0 0 -0 -0 -0
0 0 -0 -0 -0 0 0 0 0 0 0 0 0 0 0 0 0 0 0 0 0 0 -0 -0 -0 0 0 0 0 0 -0 -0 0 -0 0 0 0 0 0 0 0 0 -0
0 0 0 0 0 0 0 0 0 0 0 0 0 0 0 0 0 0 0 0 0 0 0 -0 0 0 0 0 0 0 0 0 -0 0 0 0 0 0 0 0 0 0 0
0 0 0 0 0 0 0 0 0 0 0 0 0 0 0 0 0 0 0 0 0 0 0 0 0 0 0 0 0 0 0 0 -0 0 0 0 0 0 0 0 0 0 0
0 0 0 0 0 0 0 0 0 0 0 0 0 0 0 0 0 0 0 0 0 0 0 0 0 0 0 0 0 0 0 0 -0 0 0 0 0 0 0 0 0 0 0
0 0 0 0 0 0 0 0 0 0 0 0 0 0 0 0 0 0 0 0 0 0 0 0 0 0 0 0 0 0 0 -0 -0 0 -0 0 0 -0 -0 0 0 0 0
0 0 0 0 0 0 0 0 0 0 0 0 0 0 0 0 0 0 0 0 0 0 0 0 0 0 0 0 0 0 0 0 -0 0 0 0 0 -0 -0 0 0 0 0
0 0 0 0 0 0 0 0 0 0 0 0 0 0 0 0 0 0 0 0 0 0 0 0 0 0 0 0 0 0 0 0 0 0 0 0 0 0 0 0 0 0 0
0 0 0 0 0 0 0 0 0 0 0 0 0 0 0 0 0 0 0 0 0 0 0 0 0 0 0 0 0 0 0 0 0 0 0 0 0 0 0 0 0 0 0
0 0 0 0 0 0 0 0 0 0 0 0 0 0 0 0 0 0 0 0 0 0 0 0 0 0 0 0 0 0 0 0 0 0 0 0 0 0 0 0 0 0 0
0 0 0 0 0 0 0 0 0 0 0 0 0 0 0 0 0 0 0 0 0 0 0 0 0 0 0 0 0 0 0 0 0 0 0 0 0 0 0 0 0 0 0
0 0 0 0 0 0 0 0 0 0 0 0 0 0 0 0 0 0 0 0 0 0 0 0 0 0 0 0 0 0 0 0 0 0 0 0 0 0 0 0 0 0 0
0 0 0 0 0 0 0 0 0 0 0 0 0 0 0 0 0 0 0 0 0 0 0 0 0 0 0 0 0 0 0 0 0 0 0 0 0 0 0 0 0 0 0
0 0 0 0 0 0 0 0 0 0 0 0 0 0 0 0 0 0 0 0 0 0 0 0 0 0 0 0 0 0 0 0 0 0 0 0 0 0 0 0 0 0 0
0 0 0 0 0 0 0 0 0 0 0 0 0 0 0 0 0 0 0 0 0 0 0 0 0 0 0 0 0 0 0 0 0 0 0 0 0 0 0 0 0 0 0
0 0 0 0 0 0 0 0 0 0 0 0 0 0 0 0 0 0 0 0 0 0 0 0 0 0 0 0 0 0 0 0 0 0 0 0 0 0 0 0 0 0 0
0 0 0 0 0 0 0 0 0 0 0 0 0 0 0 0 0 0 0 0 0 0 0 0 0 0 0 0 0 0 0 0 0 0 0 0 0 0 0 0 0 0 0
0 0 0 0 0 0 0 0 0 0 0 0 0 0 0 0 0 0 0 0 0 0 0 0 0 0 0 0 0 0 0 0 0 0 0 0 0 0 0 0 0 0 0
-0 -0 0 0 0 0 0 0 0 0 0 0 0 0 0 0 0 0 0 0 0 0 0 0 0 0 0 0 0 0 0 0 0 0 0 0 0 0 0 0 0 0 0
-0 -0 -0 -0 0 0 0 0 0 0 0 0 0 0 0 0 0 0 0 0 0 0 0 0 0 0 0 0 0 0 0 0 0 0 0 0 0 0 0 0 0 0 0
0 -0 -0 -0 -0 -0 -0 0 0 0 0 0 0 0 0 0 0 0 0 0 0 0 0 0 0 0 0 0 0 0 0 0 0 0 0 0 0 0 0 0 0 0 0
0 -0 -0 -0 -0 -0 -0 -0 -0 -0 0 0 0 0 0 0 0 0 0 0 0 0 0 0 0 0 0 0 0 0 0 0 0 0 0 0 0 0 0 0 0 0 0
0 0 -0 -0 -0 -0 -0 -0 -0 -0 -0 0 0 0 0 0 0 0 0 0 0 0 0 0 0 0 0 0 0 0 0 0 0 0 0 0 0 0 0 0 0 0 0
Wind_Speed_500mb
37 42 45 42 39 37 34 36 31 29 28 26 24 21 17 15 15 22 21 44 27 26 41 26 19 25 29 34 33 30 26 24 28 29 26 22 21 20 17 16 17 15 17
31 43 45 41 41 40 36 36 35 31 29 29 27 23 21 16 17 18 24 20 29 25 28 27 20 25 30 37 34 29 25 24 26 25 24 22 22 20 18 18 16 15 15
31 43 47 41 42 40 38 37 39 37 36 33 28 23 20 17 18 19 24 26 24 23 24 26 20 29 32 32 31 28 24 19 19 21 21 18 16 18 15 14 12 13 14
31 42 46 43 43 41 39 37 41 41 38 36 30 23 18 15 17 21 24 25 25 24 26 27 22 29 27 28 28 26 23 18 18 18 16 16 12 13 13 11 10 10 10
33 41 43 40 42 42 40 39 44 44 39 37 29 21 17 14 16 22 25 27 27 26 26 25 24 26 24 24 26 25 23 20 18 16 15 14 13 10 10 8 7 6 5
34 40 41 39 41 42 39 41 46 48 44 42 33 27 18 15 17 24 26 27 27 27 27 28 28 27 25 24 26 26 22 19 15 13 12 10 10 9 8 5 4 3 2
34 38 39 40 41 43 40 45 52 50 49 46 39 28 20 17 15 23 26 27 25 27 27 28 27 27 26 24 23 21 19 16 13 11 9 7 6 5 6 5 3 2 1
32 39 40 42 43 43 42 51 51 51 55 52 42 32 24 20 16 22 26 28 29 29 27 27 27 26 24 23 21 19 17 14 11 10 9 8 6 5 6 5 4 2 2
31 39 41 45 47 47 47 56 53 56 58 53 42 32 28 24 20 20 23 29 30 29 30 29 28 26 24 22 20 17 16 15 13 12 11 10 10 9 7 5 3 4 4
37 42 40 42 46 52 52 60 60 61 58 53 50 42 34 28 25 23 24 27 29 30 32 31 29 27 26 23 21 18 16 15 15 15 13 13 12 11 9 8 6 6 8
44 49 47 46 44 45 47 61 68 65 62 57 53 42 38 34 30 29 27 30 32 32 33 32 31 29 29 27 25 22 20 19 20 20 18 18 16 15 15 13 11 10 10
49 56 58 55 52 47 47 49 72 72 66 62 59 52 47 41 37 33 30 29 35 34 34 35 35 34 32 31 29 27 26 25 25 23 21 20 21 20 18 16 15 14 13
45 57 64 67 63 60 60 49 56 63 76 68 65 63 55 46 45 42 39 37 38 39 41 42 41 39 36 34 33 32 31 29 27 27 28 27 25 22 18 18 18 17 15
48 58 63 68 68 66 67 67 57 60 74 79 75 70 65 60 53 49 46 42 41 44 47 46 45 42 39 39 37 36 36 33 31 31 30 27 25 22 19 18 18 17 15
49 53 60 66 76 71 63 79 81 66 77 82 78 75 83 67 61 56 52 48 46 47 50 51 49 46 44 42 41 40 39 38 37 34 29 26 24 22 20 19 19 18 15
52 54 60 65 66 74 73 71 86 82 84 89 80 84 80 77 71 63 59 54 50 50 52 53 52 50 48 45 44 43 41 40 36 31 27 26 25 24 21 20 21 20 20
53 53 54 71 73 72 74 81 85 89 92 96 98 95 90 81 78 70 62 59 55 53 55 55 56 54 52 48 47 43 40 38 35 31 29 29 28 27 24 25 25 23 20
47 48 47 56 82 80 75 75 90 94 93 96 97 94 92 89 85 81 70 64 57 57 58 57 55 52 49 46 42 37 38 38 37 35 33 32 31 29 29 28 27 27 23
38 43 32 38 69 82 73 76 89 97 95 93 93 89 90 97 90 90 78 70 62 61 61 60 56 48 37 39 40 37 37 38 39 36 35 34 32 31 34 32 31 32 28
48 52 40 32 39 71 85 88 93 99 97 92 94 95 95 101 91 96 83 75 70 66 63 63 58 52 50 41 38 42 41 41 39 38 35 36 36 35 36 34 33 38 37
69 51 54 43 42 52 77 84 92 89 100 91 99 96 99 98 97 96 89 82 74 73 66 59 52 49 46 48 36 34 40 38 36 36 37 38 39 41 42 38 44 45 44
65 63 58 73 63 65 62 42 84 77 87 85 98 95 102 96 102 100 95 90 83 74 69 65 61 53 47 41 34 24 17 22 28 35 39 41 43 48 50 46 46 50 50
54 64 70 64 79 104 82 79 57 72 65 89 101 102 99 97 102 105 99 95 90 84 75 70 72 66 49 49 52 27 18 21 24 26 29 36 41 44 45 48 53 57 55
56 56 55 62 56 68 97 115 115 101 51 71 78 101 102 103 99 106 103 99 93 87 82 79 74 69 56 50 46 60 44 20 18 16 26 31 33 38 47 56 58 63 59
53 63 60 61 61 57 60 70 93 112 100 92 54 99 109 108 104 96 103 100 93 90 87 86 82 73 68 60 56 44 61 60 36 18 28 34 42 47 54 63 65 59 53
58 63 61 62 67 65 59 59 60 75 96 93 90 71 88 102 91 92 91 97 94 91 88 86 83 77 69 65 67 66 53 58 67 59 35 46 52 48 49 52 52 53 46
Wind_Direction_500mb
195 192 191 191 194 191 190 188 193 190 188 189 188 181 175 170 161 151 164 153 153 172 155 142 169 157 158 155 147 135 128 118 122 132 134 129 125 123 128 123 105 104 103
201 193 195 195 194 194 194 194 190 193 187 186 192 188 177 179 182 184 160 153 171 163 154 155 178 179 172 155 157 150 136 120 113 120 124 124 124 122 124 124 123 109 103
198 193 196 200 197 195 193 196 194 195 192 190 203 200 188 192 196 197 169 162 164 160 162 163 152 137 141 152 157 158 146 132 126 123 124 108 117 119 112 100 94 86 83
199 196 197 202 199 198 196 198 198 191 195 203 210 209 198 205 204 192 183 172 159 161 164 158 158 146 142 144 152 156 155 153 141 136 125 119 118 117 108 108 104 96 93
201 199 199 206 203 201 203 201 196 188 192 198 201 211 208 213 211 199 181 174 172 168 163 166 166 155 154 152 153 154 157 154 151 144 141 141 129 134 122 118 105 98 89
206 204 211 209 206 207 205 200 191 187 191 196 212 211 219 222 220 205 183 174 180 173 169 170 167 165 164 164 167 167 164 161 154 145 146 144 153 147 135 139 128 125 102
212 209 216 212 211 210 208 199 189 189 192 196 211 226 225 223 223 209 187 187 184 178 176 176 177 179 178 175 176 174 172 173 166 165 159 164 175 176 169 178 177 202 191
219 218 218 215 213 214 208 198 196 193 196 202 211 220 225 224 222 214 197 196 191 188 187 186 189 194 192 188 188 184 182 181 181 184 188 195 212 203 210 198 213 224 222
231 225 219 219 216 214 211 203 203 200 203 208 212 219 222 223 224 218 212 203 196 194 195 196 197 200 204 207 204 201 198 201 201 206 211 218 223 225 230 224 219 224 235
250 231 226 221 219 217 214 208 207 208 212 215 219 215 214 221 225 224 223 219 202 201 202 204 205 207 211 215 221 218 218 220 217 220 223 236 235 236 238 237 232 240 248
256 240 228 230 224 221 218 214 212 213 216 220 223 219 208 216 222 225 228 223 215 210 209 210 212 215 219 221 224 227 227 227 224 223 228 234 232 228 233 239 245 251 261
276 254 239 232 230 225 224 221 215 215 219 222 223 225 220 217 224 228 231 228 222 219 217 217 219 220 223 227 228 229 230 232 230 229 235 237 234 232 233 240 248 255 259
278 266 251 242 234 229 225 224 221 218 218 220 222 227 223 218 223 223 226 225 225 222 221 220 223 225 226 229 230 230 232 235 234 235 237 236 235 237 240 246 250 254 258
282 276 265 248 241 233 232 228 224 221 221 220 226 226 224 221 224 225 227 229 230 229 224 224 225 228 229 231 231 230 231 233 237 239 242 241 240 241 244 249 253 251 248
291 271 270 260 247 237 232 235 232 225 225 223 226 226 229 225 228 229 232 233 234 231 227 229 229 231 232 235 235 233 233 234 238 241 243 243 244 244 242 242 243 242 236
304 288 267 258 256 241 238 238 240 231 230 223 225 225 225 230 229 230 234 235 237 235 231 229 230 233 234 236 236 236 237 240 245 249 249 249 247 244 242 241 242 238 235
307 300 282 260 258 252 248 247 244 240 235 230 226 229 230 230 233 233 235 239 241 237 233 232 230 232 235 239 239 242 244 246 250 250 247 242 244 244 243 242 240 238 235
320 308 299 273 259 264 256 252 249 241 239 236 231 231 231 232 235 237 237 239 242 240 235 231 229 232 235 237 240 243 244 245 246 246 242 239 240 243 244 243 240 236 235
331 325 290 278 266 260 265 253 249 242 242 238 236 230 232 233 234 237 238 243 244 240 235 231 229 228 234 238 240 240 242 245 246 247 242 239 240 242 242 243 239 234 231
301 293 314 290 282 258 256 250 240 235 237 243 241 237 233 236 234 237 239 242 244 241 234 232 231 232 235 234 240 243 243 247 250 248 244 240 241 241 243 244 237 228 224
3 297 283 314 302 341 251 242 241 238 235 244 245 238 239 238 237 236 240 242 241 240 236 232 232 229 233 231 235 247 251 251 251 246 240 237 238 236 240 237 232 227 224
347 356 337 284 298 315 330 293 251 251 246 252 247 246 235 239 239 238 239 241 243 240 236 236 232 230 229 227 223 228 247 234 233 237 239 236 235 236 236 231 231 225 228
337 337 342 340 293 284 300 311 331 252 256 241 243 243 244 242 240 238 239 240 242 242 240 239 236 229 225 226 224 202 201 219 189 222 228 227 230 232 227 222 220 217 219
324 322 326 327 337 325 279 288 294 304 299 249 250 251 246 243 242 237 238 238 241 242 241 239 236 233 224 223 224 226 213 187 194 189 203 211 217 218 219 213 217 215 211
318 317 317 318 310 310 321 295 290 290 295 299 301 250 247 248 244 238 236 238 237 238 239 240 237 234 232 229 228 226 228 223 212 205 200 203 202 205 207 211 207 204 211
322 318 315 316 311 305 303 303 293 289 290 293 296 287 247 243 248 239 236 235 234 233 236 234 237 237 235 236 237 236 231 225 227 230 236 208 213 201 209 207 213 216 208
Wind_Speed_850mb
37 42 45 42 39 37 34 36 31 29 28 26 24 21 17 15 15 22 21 44 27 26 41 26 19 25 29 34 33 30 26 24 28 29 26 22 21 20 17 16 17 15 17
31 43 45 41 41 40 36 36 35 31 29 29 27 23 21 16 17 18 24 20 29 25 28 27 20 25 30 37 34 29 25 24 26 25 24 22 22 20 18 18 16 15 15
31 43 47 41 42 40 38 37 39 37 36 33 28 23 20 17 18 19 24 26 24 23 24 26 20 29 32 32 31 28 24 19 19 21 21 18 16 18 15 14 12 13 14
31 42 46 43 43 41 39 37 41 41 38 36 30 23 18 15 17 21 24 25 25 24 26 27 22 29 27 28 28 26 23 18 18 18 16 16 12 13 13 11 10 10 10
33 41 43 40 42 42 40 39 44 44 39 37 29 21 17 14 16 22 25 27 27 26 26 25 24 26 24 24 26 25 23 20 18 16 15 14 13 10 10 8 7 6 5
34 40 41 39 41 42 39 41 46 48 44 42 33 27 18 15 17 24 26 27 27 27 27 28 28 27 25 24 26 26 22 19 15 13 12 10 10 9 8 5 4 3 2
34 38 39 40 41 43 40 45 52 50 49 46 39 28 20 17 15 23 26 27 25 27 27 28 27 27 26 24 23 21 19 16 13 11 9 7 6 5 6 5 3 2 1
32 39 40 42 43 43 42 51 51 51 55 52 42 32 24 20 16 22 26 28 29 29 27 27 27 26 24 23 21 19 17 14 11 10 9 8 6 5 6 5 4 2 2
31 39 41 45 47 47 47 56 53 56 58 53 42 32 28 24 20 20 23 29 30 29 30 29 28 26 24 22 20 17 16 15 13 12 11 10 10 9 7 5 3 4 4
37 42 40 42 46 52 52 60 60 61 58 53 50 42 34 28 25 23 24 27 29 30 32 31 29 27 26 23 21 18 16 15 15 15 13 13 12 11 9 8 6 6 8
44 49 47 46 44 45 47 61 68 65 62 57 53 42 38 34 30 29 27 30 32 32 33 32 31 29 29 27 25 22 20 19 20 20 18 18 16 15 15 13 11 10 10
49 56 58 55 52 47 47 49 72 72 66 62 59 52 47 41 37 33 30 29 35 34 34 35 35 34 32 31 29 27 26 25 25 23 21 20 21 20 18 16 15 14 13
45 57 64 67 63 60 60 49 56 63 76 68 65 63 55 46 45 42 39 37 38 39 41 42 41 39 36 34 33 32 31 29 27 27 28 27 25 22 18 18 18 17 15
48 58 63 68 68 66 67 67 57 60 74 79 75 70 65 60 53 49 46 42 41 44 47 46 45 42 39 39 37 36 36 33 31 31 30 27 25 22 19 18 18 17 15
49 53 60 66 76 71 63 79 81 66 77 82 78 75 83 67 61 56 52 48 46 47 50 51 49 46 44 42 41 40 39 38 37 34 29 26 24 22 20 19 19 18 15
52 54 60 65 66 74 73 71 86 82 84 89 80 84 80 77 71 63 59 54 50 50 52 53 52 50 48 45 44 43 41 40 36 31 27 26 25 24 21 20 21 20 20
53 53 54 71 73 72 74 81 85 89 92 96 98 95 90 81 78 70 62 59 55 53 55 55 56 54 52 48 47 43 40 38 35 31 29 29 28 27 24 25 25 23 20
47 48 47 56 82 80 75 75 90 94 93 96 97 94 92 89 85 81 70 64 57 57 58 57 55 52 49 46 42 37 38 38 37 35 33 32 31 29 29 28 27 27 23
38 43 32 38 69 82 73 76 89 97 95 93 93 89 90 97 90 90 78 70 62 61 61 60 56 48 37 39 40 37 37 38 39 36 35 34 32 31 34 32 31 32 28
48 52 40 32 39 71 85 88 93 99 97 92 94 95 95 101 91 96 83 75 70 66 63 63 58 52 50 41 38 42 41 41 39 38 35 36 36 35 36 34 33 38 37
69 51 54 43 42 52 77 84 92 89 100 91 99 96 99 98 97 96 89 82 74 73 66 59 52 49 46 48 36 34 40 38 36 36 37 38 39 41 42 38 44 45 44
65 63 58 73 63 65 62 42 84 77 87 85 98 95 102 96 102 100 95 90 83 74 69 65 61 53 47 41 34 24 17 22 28 35 39 41 43 48 50 46 46 50 50
54 64 70 64 79 104 82 79 57 72 65 89 101 102 99 97 102 105 99 95 90 84 75 70 72 66 49 49 52 27 18 21 24 26 29 36 41 44 45 48 53 57 55
56 56 55 62 56 68 97 115 115 101 51 71 78 101 102 103 99 106 103 99 93 87 82 79 74 69 56 50 46 60 44 20 18 16 26 31 33 38 47 56 58 63 59
53 63 60 61 61 57 60 70 93 112 100 92 54 99 109 108 104 96 103 100 93 90 87 86 82 73 68 60 56 44 61 60 36 18 28 34 42 47 54 63 65 59 53
58 63 61 62 67 65 59 59 60 75 96 93 90 71 88 102 91 92 91 97 94 91 88 86 83 77 69 65 67 66 53 58 67 59 35 46 52 48 49 52 52 53 46
Wind_Direction_850mb
195 192 191 191 194 191 190 188 193 190 188 189 188 181 175 170 161 151 164 153 153 172 155 142 169 157 158 155 147 135 128 118 122 132 134 129 125 123 128 123 105 104 103
201 193 195 195 194 194 194 194 190 193 187 186 192 188 177 179 182 184 160 153 171 163 154 155 178 179 172 155 157 150 136 120 113 120 124 124 124 122 124 124 123 109 103
198 193 196 200 197 195 193 196 194 195 192 190 203 200 188 192 196 197 169 162 164 160 162 163 152 137 141 152 157 158 146 132 126 123 124 108 117 119 112 100 94 86 83
199 196 197 202 199 198 196 198 198 191 195 203 210 209 198 205 204 192 183 172 159 161 164 158 158 146 142 144 152 156 155 153 141 136 125 119 118 117 108 108 104 96 93
201 199 199 206 203 201 203 201 196 188 192 198 201 211 208 213 211 199 181 174 172 168 163 166 166 155 154 152 153 154 157 154 151 144 141 141 129 134 122 118 105 98 89
206 204 211 209 206 207 205 200 191 187 191 196 212 211 219 222 220 205 183 174 180 173 169 170 167 165 164 164 167 167 164 161 154 145 146 144 153 147 135 139 128 125 102
212 209 216 212 211 210 208 199 189 189 192 196 211 226 225 223 223 209 187 187 184 178 176 176 177 179 178 175 176 174 172 173 166 165 159 164 175 176 169 178 177 202 191
219 218 218 215 213 214 208 198 196 193 196 202 211 220 225 224 222 214 197 196 191 188 187 186 189 194 192 188 188 184 182 181 181 184 188 195 212 203 210 198 213 224 222
231 225 219 219 216 214 211 203 203 200 203 208 212 219 222 223 224 218 212 203 196 194 195 196 197 200 204 207 204 201 198 201 201 206 211 218 223 225 230 224 219 224 235
250 231 226 221 219 217 214 208 207 208 212 215 219 215 214 221 225 224 223 219 202 201 202 204 205 207 211 215 221 218 218 220 217 220 223 236 235 236 238 237 232 240 248
256 240 228 230 224 221 218 214 212 213 216 220 223 219 208 216 222 225 228 223 215 210 209 210 212 215 219 221 224 227 227 227 224 223 228 234 232 228 233 239 245 251 261
276 254 239 232 230 225 224 221 215 215 219 222 223 225 220 217 224 228 231 228 222 219 217 217 219 220 223 227 228 229 230 232 230 229 235 237 234 232 233 240 248 255 259
278 266 251 242 234 229 225 224 221 218 218 220 222 227 223 218 223 223 226 225 225 222 221 220 223 225 226 229 230 230 232 235 234 235 237 236 235 237 240 246 250 254 258
282 276 265 248 241 233 232 228 224 221 221 220 226 226 224 221 224 225 227 229 230 229 224 224 225 228 229 231 231 230 231 233 237 239 242 241 240 241 244 249 253 251 248
291 271 270 260 247 237 232 235 232 225 225 223 226 226 229 225 228 229 232 233 234 231 227 229 229 231 232 235 235 233 233 234 238 241 243 243 244 244 242 242 243 242 236
304 288 267 258 256 241 238 238 240 231 230 223 225 225 225 230 229 230 234 235 237 235 231 229 230 233 234 236 236 236 237 240 245 249 249 249 247 244 242 241 242 238 235
307 300 282 260 258 252 248 247 244 240 235 230 226 229 230 230 233 233 235 239 241 237 233 232 230 232 235 239 239 242 244 246 250 250 247 242 244 244 243 242 240 238 235
320 308 299 273 259 264 256 252 249 241 239 236 231 231 231 232 235 237 237 239 242 240 235 231 229 232 235 237 240 243 244 245 246 246 242 239 240 243 244 243 240 236 235
331 325 290 278 266 260 265 253 249 242 242 238 236 230 232 233 234 237 238 243 244 240 235 231 229 228 234 238 240 240 242 245 246 247 242 239 240 242 242 243 239 234 231
301 293 314 290 282 258 256 250 240 235 237 243 241 237 233 236 234 237 239 242 244 241 234 232 231 232 235 234 240 243 243 247 250 248 244 240 241 241 243 244 237 228 224
3 297 283 314 302 341 251 242 241 238 235 244 245 238 239 238 237 236 240 242 241 240 236 232 232 229 233 231 235 247 251 251 251 246 240 237 238 236 240 237 232 227 224
347 356 337 284 298 315 330 293 251 251 246 252 247 246 235 239 239 238 239 241 243 240 236 236 232 230 229 227 223 228 247 234 233 237 239 236 235 236 236 231 231 225 228
337 337 342 340 293 284 300 311 331 252 256 241 243 243 244 242 240 238 239 240 242 242 240 239 236 229 225 226 224 202 201 219 189 222 228 227 230 232 227 222 220 217 219
324 322 326 327 337 325 279 288 294 304 299 249 250 251 246 243 242 237 238 238 241 242 241 239 236 233 224 223 224 226 213 187 194 189 203 211 217 218 219 213 217 215 211
318 317 317 318 310 310 321 295 290 290 295 299 301 250 247 248 244 238 236 238 237 238 239 240 237 234 232 229 228 226 228 223 212 205 200 203 202 205 207 211 207 204 211
322 318 315 316 311 305 303 303 293 289 290 293 296 287 247 243 248 239 236 235 234 233 236 234 237 237 235 236 237 236 231 225 227 230 236 208 213 201 209 207 213 216 208